DW3929 Weather Reports


time (UTC)temp
C
wind
direction
speed
KPH
gust
KPH
rain 1hr
cm
rain 24hr
cm
rain mn
cm
humidity
%
barometer
mb
20260510000327 30 360 3.2 8.0 0.00 0.03 0.03 75 1007.7
20260509235827 30 360 3.2 8.0 0.00 0.03 0.03 74 1007.6
20260509235326 30 360 1.6 8.0 0.00 0.03 0.03 73 1007.6
20260509234824 30 360 1.6 8.0 0.00 0.03 0.03 72 1007.6
20260509234323 30 360 1.6 8.0 0.00 0.03 0.03 73 1007.6
20260509233841 30 360 3.2 6.4 0.00 0.03 0.03 72 1007.5
20260509233319 31 360 1.6 6.4 0.00 0.03 0.03 71 1007.5
20260509232818 31 360 1.6 4.8 0.00 0.03 0.03 72 1007.4
20260509232318 31 360 1.6 4.8 0.00 0.03 0.03 70 1007.4
20260509231817 31 360 0.0 4.8 0.00 0.03 0.03 72 1007.3
20260509231336 31 360 1.6 6.4 0.00 0.03 0.03 69 1007.2
20260509230815 31 360 0.0 6.4 0.00 0.03 0.03 69 1007.3
20260509230313 30 360 1.6 4.8 0.00 0.03 0.03 70 1007.3
20260509225813 30 360 1.6 4.8 0.00 0.03 0.03 70 1007.3
20260509225313 29 360 1.6 4.8 0.00 0.03 0.03 72 1007.4
20260509224832 28 360 1.6 4.8 0.00 0.03 0.03 73 1007.3
20260509224331 27 360 1.6 4.8 0.00 0.03 0.03 75 1007.3
20260509223849 27 360 0.0 1.6 0.00 0.03 0.03 76 1007.3
20260509223327 27 360 0.0 3.2 0.00 0.03 0.03 76 1007.3
20260509222848 27 360 1.6 4.8 0.00 0.03 0.03 76 1007.2
20260509222328 27 360 0.0 4.8 0.00 0.03 0.03 76 1007.3
20260509221830 27 360 1.6 4.8 0.00 0.03 0.03 73 1007.4
20260509221328 28 360 0.0 3.2 0.00 0.03 0.03 73 1007.5
20260509220844 28 360 0.0 3.2 0.00 0.03 0.03 72 1007.5
20260509220323 28 360 1.6 3.2 0.00 0.03 0.03 71 1007.4
20260509215824 29 360 0.0 3.2 0.00 0.03 0.03 69 1007.3
20260509215344 29 360 1.6 4.8 0.00 0.03 0.03 69 1007.3
20260509214824 30 360 3.2 6.4 0.00 0.03 0.03 66 1007.3
20260509214342 30 360 3.2 8.0 0.00 0.03 0.03 65 1007.3
20260509213818 30 360 3.2 17.7 0.00 0.03 0.03 64 1007.4
20260509213319 31 360 4.8 19.3 0.00 0.03 0.03 64 1007.3
20260509212838 32 360 6.4 19.3 0.00 0.03 0.03 62 1007.5
20260509212318 33 360 1.6 12.9 0.00 0.03 0.03 63 1007.3
20260509211817 33 360 1.6 4.8 0.00 0.03 0.03 60 1007.3
20260509211316 33 360 1.6 6.4 0.00 0.03 0.03 57 1007.3
20260509210817 34 360 3.2 14.5 0.00 0.03 0.03 58 1007.3
20260509210315 35 360 6.4 16.1 0.00 0.03 0.03 55 1007.3
20260509205813 35 360 4.8 12.9 0.00 0.03 0.03 54 1007.3
20260509205333 34 360 1.6 12.9 0.00 0.03 0.03 54 1007.5
20260509204851 35 360 6.4 12.9 0.00 0.03 0.03 53 1007.6
20260509204329 34 360 4.8 12.9 0.00 0.03 0.03 55 1007.8
20260509203827 34 360 4.8 8.0 0.00 0.03 0.03 55 1008.0
20260509203353 35 360 3.2 8.0 0.00 0.03 0.03 56 1008.1
20260509202830 35 360 1.6 6.4 0.00 0.03 0.03 55 1008.2
20260509202331 35 360 1.6 9.7 0.00 0.03 0.03 61 1008.1
20260509201830 34 360 4.8 9.7 0.00 0.03 0.03 56 1008.0
20260509201350 34 360 3.2 9.7 0.00 0.03 0.03 59 1008.3
20260509200829 34 360 6.4 9.7 0.00 0.03 0.03 58 1008.4
20260509200328 34 360 3.2 6.4 0.00 0.03 0.03 58 1008.4
20260509195814 34 360 3.2 8.0 0.00 0.03 0.03 57 1008.4
20260509195331 34 360 3.2 9.7 0.00 0.03 0.03 59 1008.5
20260509194828 34 360 6.4 12.9 0.00 0.03 0.03 59 1008.6
20260509194328 33 360 8.0 12.9 0.00 0.03 0.03 60 1008.6
20260509193826 33 360 3.2 8.0 0.00 0.03 0.03 63 1008.6
20260509193325 33 360 3.2 8.0 0.00 0.03 0.03 61 1008.6
20260509192822 33 360 1.6 8.0 0.00 0.03 0.03 64 1008.6
20260509192321 33 360 1.6 9.7 0.00 0.03 0.03 66 1008.7
20260509191821 33 360 4.8 9.7 0.00 0.03 0.03 64 1008.7
20260509191319 32 360 3.2 4.8 0.00 0.03 0.03 66 1008.8
20260509190818 32 360 3.2 8.0 0.00 0.03 0.03 65 1009.0
20260509190336 32 360 1.6 8.0 0.00 0.03 0.03 65 1009.1
20260509185827 32 360 4.8 9.7 0.00 0.03 0.03 65 1009.4
20260509185345 32 360 6.4 9.7 0.00 0.03 0.03 67 1009.5
20260509184824 32 360 1.6 6.4 0.00 0.03 0.03 69 1009.5
20260509184322 32 360 3.2 8.0 0.00 0.03 0.03 68 1009.6
20260509183822 32 360 1.6 14.5 0.00 0.03 0.03 68 1009.6
20260509183319 32 360 8.0 14.5 0.00 0.03 0.03 71 1009.6
20260509182818 32 360 1.6 12.9 0.00 0.03 0.03 71 1009.6
20260509182318 32 360 8.0 14.5 0.00 0.03 0.03 70 1009.6
20260509181818 32 360 4.8 12.9 0.00 0.03 0.03 70 1009.7
20260509181319 32 360 4.8 19.3 0.00 0.03 0.03 68 1009.8
20260509180818 32 360 8.0 19.3 0.00 0.03 0.03 71 1009.8
20260509180316 31 360 4.8 12.9 0.00 0.03 0.03 73 1009.9
20260509175813 31 360 6.4 9.7 0.00 0.03 0.03 77 1009.9
20260509175313 30 360 4.8 9.7 0.00 0.03 0.03 76 1010.0
20260509174814 30 360 4.8 9.7 0.00 0.03 0.03 75 1010.1
20260509174314 30 360 3.2 6.4 0.00 0.03 0.03 76 1010.1
20260509173814 30 360 1.6 12.9 0.00 0.03 0.03 77 1010.2
20260509173314 30 360 3.2 12.9 0.00 0.03 0.03 76 1010.3
20260509172832 30 360 3.2 9.7 0.00 0.03 0.03 76 1010.2
20260509172331 30 360 1.6 8.0 0.00 0.03 0.03 77 1010.2
20260509171850 30 360 4.8 12.9 0.00 0.03 0.03 76 1010.3
20260509171329 30 360 6.4 12.9 0.00 0.03 0.03 77 1010.3
20260509170829 30 360 1.6 14.5 0.00 0.03 0.03 77 1010.3
20260509170315 30 360 8.0 14.5 0.00 0.03 0.03 78 1010.3
20260509165852 29 360 4.8 8.0 0.00 0.03 0.03 77 1010.3
20260509165331 29 360 4.8 8.0 0.00 0.03 0.03 79 1010.4
20260509164830 28 360 3.2 8.0 0.00 0.03 0.03 81 1010.4
20260509164328 28 360 3.2 6.4 0.00 0.03 0.03 83 1010.5
20260509163828 28 360 1.6 4.8 0.00 0.03 0.03 82 1010.4
20260509163325 28 360 3.2 9.7 0.00 0.03 0.03 81 1010.4
20260509162846 28 360 3.2 12.9 0.00 0.03 0.03 82 1010.4
20260509162325 28 360 4.8 14.5 0.00 0.03 0.03 81 1010.4
20260509161845 28 360 8.0 14.5 0.00 0.03 0.03 82 1010.6
20260509161323 28 360 6.4 12.9 0.00 0.03 0.03 82 1010.5
20260509160823 28 360 4.8 12.9 0.00 0.03 0.03 82 1010.4
20260509160323 27 360 6.4 12.9 0.00 0.03 0.03 82 1010.3
20260509155822 27 360 6.4 12.9 0.00 0.03 0.03 83 1010.3
20260509155319 27 360 3.2 12.9 0.00 0.03 0.03 86 1010.3
20260509154818 27 360 6.4 12.9 0.00 0.03 0.03 87 1010.3
20260509154316 27 360 3.2 4.8 0.00 0.03 0.03 89 1010.2
20260509153815 26 360 1.6 6.4 0.00 0.03 0.03 91 1010.2
20260509153315 26 360 3.2 6.4 0.00 0.03 0.03 92 1010.2
20260509152813 26 360 3.2 8.0 0.00 0.03 0.03 92 1010.0
20260509152330 25 360 3.2 8.0 0.00 0.03 0.03 94 1009.9
20260509151830 25 360 3.2 9.7 0.00 0.03 0.03 95 1009.9
20260509151326 25 360 6.4 9.7 0.00 0.03 0.03 97 1010.0
20260509150826 24 360 3.2 12.9 0.00 0.03 0.03 98 1010.2
20260509150341 24 360 8.0 12.9 0.00 0.03 0.03 98 1010.2
20260509145818 24 360 3.2 6.4 0.00 0.03 0.03 99 1010.3
20260509145319 23 360 0.0 4.8 0.00 0.03 0.03 99 1010.6
20260509144818 23 360 3.2 4.8 0.00 0.03 0.03 99 1010.7
20260509144317 23 360 3.2 4.8 0.00 0.03 0.03 99 1010.8
20260509143818 23 360 0.0 1.6 0.00 0.03 0.03 99 1010.8
20260509143317 23 360 0.0 3.2 0.00 0.03 0.03 99 1010.6
20260509142817 23 360 1.6 4.8 0.00 0.03 0.03 99 1010.8
20260509142315 23 360 3.2 4.8 0.00 0.03 0.03 99 1010.7
20260509141815 23 360 0.0 3.2 0.00 0.03 0.03 99 1010.6
20260509141315 23 360 1.6 4.8 0.00 0.03 0.03 99 1010.2
20260509140815 23 360 1.6 4.8 0.00 0.03 0.03 99 1010.2
20260509140315 23 360 1.6 4.8 0.00 0.03 0.03 99 1010.2
20260509135816 23 360 0.0 4.8 0.00 0.03 0.03 99 1009.9
20260509135316 23 360 1.6 4.8 0.00 0.03 0.03 99 1009.9
20260509134816 23 360 0.0 4.8 0.00 0.03 0.03 99 1010.3
20260509134315 23 360 0.0 1.6 0.00 0.03 0.03 99 1010.2
20260509133814 23 360 0.0 3.2 0.00 0.03 0.03 99 1010.2
20260509133314 23 360 1.6 3.2 0.00 0.03 0.03 99 1010.0
20260509132815 23 360 0.0 1.6 0.00 0.03 0.03 99 1010.1
20260509132334 23 360 0.0 0.0 0.00 0.03 0.03 99 1010.5
20260509131814 23 360 0.0 0.0 0.00 0.03 0.03 99 1010.5
20260509131332 23 360 0.0 0.0 0.00 0.03 0.03 99 1010.5
20260509130832 23 360 0.0 0.0 0.00 0.03 0.03 99 1010.4
20260509130331 23 360 0.0 1.6 0.00 0.03 0.03 99 1010.3
20260509125829 23 360 0.0 3.2 0.00 0.03 0.03 99 1010.3
20260509125330 23 360 0.0 3.2 0.00 0.03 0.03 99 1010.0
20260509124849 23 360 0.0 3.2 0.00 0.03 0.03 99 1009.9
20260509124326 23 360 1.6 4.8 0.00 0.03 0.03 99 1010.1
20260509123826 23 360 1.6 3.2 0.00 0.03 0.03 99 1010.0
20260509123325 23 360 1.6 3.2 0.00 0.03 0.03 99 1009.9
20260509122822 23 360 0.0 3.2 0.00 0.03 0.03 99 1010.0
20260509122322 23 360 0.0 3.2 0.00 0.03 0.03 99 1010.2
20260509121820 23 360 1.6 3.2 0.00 0.03 0.03 99 1010.3
20260509121319 23 360 1.6 3.2 0.00 0.03 0.03 99 1010.3
20260509120818 23 360 1.6 3.2 0.00 0.03 0.03 99 1010.3
20260509120316 23 360 1.6 3.2 0.00 0.03 0.03 99 1010.3
20260509115816 23 360 0.0 1.6 0.00 0.03 0.03 99 1010.2
20260509115316 23 360 0.0 3.2 0.00 0.03 0.03 99 1010.1
20260509114329 23 360 0.0 3.2 0.00 0.03 0.03 99 1010.2
20260509113827 23 360 0.0 6.4 0.00 0.03 0.03 99 1010.2
20260509113324 23 360 3.2 6.4 0.00 0.03 0.03 99 1010.3
20260509112821 23 360 1.6 4.8 0.00 0.03 0.03 99 1010.2
20260509112319 23 360 1.6 8.0 0.00 0.03 0.03 99 1010.1
20260509111818 23 360 3.2 9.7 0.00 0.03 0.03 99 1009.9
20260509111317 23 360 3.2 8.0 0.00 0.03 0.03 99 1010.1
20260509110816 23 360 1.6 6.4 0.00 0.03 0.03 99 1010.0
20260509110336 23 360 1.6 4.8 0.00 0.03 0.03 99 1010.1
20260509105835 23 360 1.6 8.0 0.00 0.03 0.03 99 1010.1
20260509105348 23 360 1.6 8.0 0.00 0.03 0.03 99 1010.0
20260509104847 23 360 1.6 8.0 0.00 0.03 0.03 98 1009.9
20260509104323 23 360 3.2 4.8 0.00 0.03 0.03 98 1009.7
20260509103823 23 360 1.6 3.2 0.00 0.03 0.03 98 1009.6
20260509103323 23 360 0.0 1.6 0.00 0.03 0.03 98 1009.7
20260509102841 23 360 0.0 1.6 0.00 0.03 0.03 98 1009.7
20260509102321 23 360 0.0 1.6 0.03 0.03 0.03 98 1009.8
20260509101820 23 360 0.0 1.6 0.03 0.03 0.03 98 1010.0
20260509101319 23 360 0.0 1.6 0.03 0.03 0.03 98 1010.0
20260509100817 23 360 0.0 1.6 0.03 0.03 0.03 98 1010.0
20260509100315 23 360 0.0 1.6 0.03 0.03 0.03 98 1010.0
20260509095814 23 360 0.0 1.6 0.03 0.03 0.03 98 1010.0
20260509095353 23 360 0.0 3.2 0.03 0.03 0.03 98 1009.9
20260509094830 23 360 0.0 3.2 0.03 0.03 0.03 98 1009.7
20260509094347 23 360 0.0 1.6 0.03 0.03 0.03 98 1009.5
20260509093826 23 360 0.0 3.2 0.03 0.03 0.03 98 1009.4
20260509093326 23 360 0.0 3.2 0.03 0.03 0.03 98 1009.3
20260509092847 23 360 0.0 1.6 0.03 0.03 0.03 98 1009.4
20260509092328 23 360 0.0 1.6 0.00 0.00 0.00 98 1009.5
20260509091828 23 360 0.0 3.2 0.00 0.00 0.00 98 1009.4
20260509091348 23 360 0.0 1.6 0.00 0.00 0.00 98 1009.4
20260509090826 23 360 0.0 4.8 0.00 0.00 0.00 98 1009.4
20260509090316 23 360 0.0 4.8 0.00 0.00 0.00 98 1009.4
20260509085835 23 360 1.6 8.0 0.00 0.00 0.00 98 1009.3
20260509085315 23 360 1.6 8.0 0.00 0.00 0.00 98 1009.2
20260509084813 23 360 1.6 4.8 0.00 0.00 0.00 98 1009.3
20260509084314 23 360 1.6 4.8 0.00 0.00 0.00 98 1009.5
20260509083814 23 360 1.6 4.8 0.00 0.00 0.00 98 1009.5
20260509083331 23 360 0.0 3.2 0.00 0.00 0.00 98 1009.6
20260509082849 23 360 0.0 3.2 0.00 0.00 0.00 97 1009.5
20260509082326 23 360 0.0 1.6 0.00 0.00 0.00 97 1009.5
20260509081826 23 360 0.0 0.0 0.00 0.00 0.00 97 1009.6
20260509081324 23 360 0.0 0.0 0.00 0.00 0.00 97 1009.3
20260509080825 23 360 0.0 0.0 0.00 0.00 0.00 97 1009.3
20260509080323 23 360 0.0 0.0 0.00 0.00 0.00 97 1009.4
20260509075823 23 360 0.0 0.0 0.00 0.00 0.00 97 1009.4
20260509075322 23 360 0.0 1.6 0.00 0.00 0.00 97 1009.4
20260509074820 23 360 0.0 1.6 0.00 0.00 0.00 97 1009.2
20260509074339 23 360 0.0 1.6 0.00 0.00 0.00 97 1009.2
20260509073816 23 360 0.0 0.0 0.00 0.00 0.00 97 1009.3
20260509073316 23 360 0.0 4.8 0.00 0.00 0.00 97 1009.4
20260509072816 23 360 1.6 6.4 0.00 0.00 0.00 97 1009.5
20260509072315 23 360 3.2 8.0 0.00 0.00 0.00 97 1009.5
20260509071836 23 360 3.2 8.0 0.00 0.00 0.00 97 1009.4
20260509071349 23 360 4.8 9.7 0.00 0.00 0.00 97 1009.4
20260509070827 23 360 4.8 9.7 0.00 0.00 0.00 97 1009.5
20260509070327 23 360 3.2 6.4 0.00 0.00 0.00 97 1009.6
20260509065826 23 360 3.2 6.4 0.00 0.00 0.00 97 1009.6
20260509065325 23 360 3.2 8.0 0.00 0.00 0.00 97 1009.6
20260509064825 23 360 4.8 8.0 0.00 0.00 0.00 97 1009.4
20260509064322 23 360 4.8 12.9 0.00 0.00 0.00 97 1009.4
20260509063821 23 360 3.2 14.5 0.00 0.00 0.00 96 1009.2
20260509063322 23 360 3.2 16.1 0.00 0.00 0.00 97 1009.4
20260509062842 23 360 8.0 16.1 0.00 0.00 0.00 97 1009.3
20260509062340 23 360 8.0 12.9 0.00 0.00 0.00 97 1009.2
20260509061819 23 360 4.8 12.9 0.00 0.00 0.00 96 1009.1
20260509061338 23 360 6.4 16.1 0.00 0.00 0.00 96 1009.2
20260509060816 23 360 8.0 16.1 0.00 0.00 0.00 96 1009.5
20260509060315 23 360 8.0 16.1 0.00 0.00 0.00 96 1009.4
20260509055827 23 360 8.0 16.1 0.00 0.00 0.00 96 1009.3
20260509055324 23 360 8.0 14.5 0.00 0.00 0.00 96 1009.3
20260509054823 23 360 6.4 20.9 0.00 0.00 0.00 97 1009.4
20260509054343 23 360 9.7 20.9 0.00 0.00 0.00 97 1009.5
20260509053821 23 360 6.4 17.7 0.00 0.00 0.00 97 1009.6
20260509053316 23 360 9.7 17.7 0.00 0.00 0.00 97 1009.5
20260509052815 23 360 8.0 17.7 0.00 0.00 0.00 97 1009.6
20260509052314 23 360 6.4 19.3 0.00 0.00 0.00 97 1009.6
20260509051832 23 360 9.7 19.3 0.00 0.00 0.00 97 1009.4
20260509051331 23 360 8.0 16.1 0.00 0.00 0.00 97 1009.3
20260509050812 22 360 4.8 12.9 0.00 0.00 0.00 97 1009.3
20260509050329 22 360 6.4 12.9 0.00 0.00 0.00 97 1009.4
20260509045827 22 360 4.8 12.9 0.00 0.00 0.00 97 1009.5
20260509045327 22 360 4.8 12.9 0.00 0.00 0.00 97 1009.4
20260509044826 22 360 1.6 4.8 0.00 0.00 0.00 97 1009.5
20260509044325 22 360 3.2 4.8 0.00 0.00 0.00 97 1009.6
20260509043825 22 360 0.0 3.2 0.00 0.00 0.00 96 1009.7
20260509043323 22 360 0.0 0.0 0.00 0.00 0.00 96 1009.6
20260509042843 22 360 0.0 0.0 0.00 0.00 0.00 96 1009.7
20260509042319 22 360 0.0 0.0 0.00 0.00 0.00 95 1009.6
20260509041820 22 360 0.0 0.0 0.00 0.00 0.00 95 1009.7
20260509041320 22 360 0.0 0.0 0.00 0.00 0.00 95 1009.7
20260509040819 22 360 0.0 0.0 0.00 0.00 0.00 95 1009.6
20260509040317 22 360 0.0 1.6 0.00 0.00 0.00 95 1009.6
20260509035816 22 360 0.0 3.2 0.00 0.00 0.00 95 1009.4
20260509035314 22 360 1.6 4.8 0.00 0.00 0.00 94 1009.3
20260509034813 22 360 3.2 4.8 0.00 0.00 0.00 94 1009.4
20260509034331 22 360 1.6 3.2 0.00 0.00 0.00 94 1009.5
20260509033830 22 360 1.6 3.2 0.00 0.00 0.00 94 1009.5
20260509033328 22 360 1.6 1.6 0.00 0.00 0.00 94 1009.4
20260509032826 22 360 0.0 0.0 0.00 0.00 0.00 94 1009.3
20260509032326 23 360 0.0 0.0 0.00 0.00 0.00 94 1009.4
20260509031826 23 360 0.0 0.0 0.00 0.00 0.00 94 1009.4
20260509031326 23 360 0.0 0.0 0.00 0.00 0.00 94 1009.3
20260509030825 23 360 0.0 0.0 0.00 0.00 0.00 94 1009.2
20260509030346 23 360 0.0 0.0 0.00 0.00 0.00 94 1009.1
20260509025821 23 360 0.0 0.0 0.00 0.00 0.00 93 1009.0
20260509025318 23 360 0.0 1.6 0.00 0.00 0.00 93 1008.9
20260509024819 23 360 0.0 4.8 0.00 0.00 0.00 93 1008.8
20260509024318 23 360 1.6 4.8 0.00 0.00 0.00 92 1008.7
20260509023816 23 360 0.0 3.2 0.00 0.00 0.00 92 1008.6
20260509023315 23 360 1.6 3.2 0.00 0.00 0.00 92 1008.5
20260509022816 23 360 0.0 0.0 0.00 0.00 0.00 92 1008.5
20260509022315 23 360 0.0 0.0 0.00 0.00 0.00 92 1008.6
20260509021834 23 360 0.0 0.0 0.00 0.00 0.00 92 1008.6
20260509021329 23 360 0.0 1.6 0.00 0.00 0.00 91 1008.5
20260509020813 24 360 0.0 1.6 0.00 0.00 0.00 91 1008.4
20260509020328 24 360 0.0 1.6 0.00 0.00 0.00 91 1008.3
20260509015848 24 360 0.0 1.6 0.00 0.00 0.00 90 1008.2
20260509015325 24 360 0.0 1.6 0.00 0.00 0.00 89 1008.1
20260509014824 24 360 0.0 3.2 0.00 0.00 0.00 90 1008.1
20260509014324 25 360 0.0 3.2 0.00 0.00 0.00 89 1008.0
20260509013824 25 360 0.0 4.8 0.00 0.00 0.00 89 1008.0
20260509013322 25 360 1.6 4.8 0.00 0.00 0.00 88 1008.0
20260509012821 25 360 1.6 3.2 0.00 0.00 0.00 88 1008.1
20260509012320 25 360 1.6 4.8 0.00 0.00 0.00 88 1008.1
20260509011820 25 360 0.0 3.2 0.00 0.00 0.00 88 1008.1
20260509011319 25 360 0.0 3.2 0.00 0.00 0.00 87 1008.0
20260509010819 25 360 0.0 1.6 0.00 0.00 0.00 87 1008.0
20260509010320 25 360 0.0 3.2 0.00 0.00 0.00 87 1008.0
20260509005839 25 360 1.6 6.4 0.00 0.00 0.00 86 1008.0
20260509005319 25 360 1.6 6.4 0.00 0.00 0.00 86 1008.0
20260509004820 25 360 1.6 9.7 0.00 0.00 0.00 86 1007.9
20260509004319 26 360 3.2 9.7 0.00 0.00 0.00 85 1007.7
20260509003818 26 360 0.0 4.8 0.00 0.00 0.00 85 1008.0
20260509003336 26 360 3.2 4.8 0.00 0.00 0.00 85 1008.0
20260509002815 26 360 0.0 6.4 0.00 0.00 0.00 85 1008.1
20260509002315 26 360 3.2 6.4 0.00 0.00 0.00 84 1008.1
20260509001816 26 360 1.6 8.0 0.00 0.00 0.00 84 1008.0
20260509001317 26 360 4.8 8.0 0.00 0.00 0.00 83 1007.9
20260509000834 26 360 0.0 3.2 0.00 0.00 0.00 84 1007.9